Location: Zagreb
(45.8000°N, 16.0000°E)
Time: 08:24:09
(UTC+02:00)

Courier 1B - Pass Details

Date: 09 August 2020
Orbit: 962 x 1209 km, 28.3° (Epoch: 27 September)

Event Time Altitude Azimuth Distance (km) Brightness Sun altitude
Rises 23:43:39 0° 247° (WSW) 3,774 10.6 -26.2°
Enters shadow 23:46:06 - 234° (SW) 3,162 10.0 -26.4°
Reaches altitude 10° 23:48:15 10° 219° (SW) 2,766 - -26.5°
Maximum altitude 23:50:50 12° 196° (SSW) 2,563 - -26.6°
Drops below altitude 10° 23:53:22 10° 173° (S) 2,718 - -26.8°
Sets 23:57:48 0° 145° (SE) 3,637 - -27.0°
